Location: Bílinka
(49.3579°N, 14.3767°E)
Time: 01:04:53
(UTC+00:00)

IRIDIUM 104 - Pass Details

Date: 28 January 2023
Orbit: 776 x 779 km, 86.4° (Epoch: 31 March)

Event Time Altitude Azimuth Distance (km) Brightness Sun altitude
Rises 18:24:21 0° 356° (N) 3,278 7.6 -24.8°
Reaches altitude 10° 18:26:42 10° 356° (N) 2,346 6.9 -25.2°
Maximum altitude 18:31:59 88° 87° (E) 788 4.2 -26.0°
Enters shadow 18:33:47 43° 175° (S) 1,095 5.0 -26.3°
Exits shadow 18:38:38 - 178° (S) 2,892 7.2 -27.1°
Sets 18:39:32 0° 178° (S) 3,250 7.5 -27.3°
